Dewpoint
-22 -22 -21 -21 -21 -21 -21 -21 -21 -21 -20 -20 -20 -20 -20 -19 -19 -19 -19 -19 -19 -19 -19 -20 -20 -20 -20 -21 -21 -21 -21 -21 -21 -21 -21 -21 -21 -21 -20 -20 -20 -19
-21 -21 -20 -20 -20 -20 -20 -20 -20 -20 -20 -20 -20 -19 -19 -19 -19 -19 -19 -19 -19 -19 -19 -19 -19 -20 -20 -20 -20 -20 -20 -21 -20 -21 -21 -21 -21 -22 -22 -22 -21 -21
-21 -21 -20 -20 -20 -19 -19 -19 -19 -19 -19 -19 -19 -19 -19 -19 -19 -18 -18 -18 -18 -18 -18 -19 -19 -19 -19 -19 -20 -20 -20 -20 -20 -21 -21 -21 -21 -21 -22 -23 -23 -22
-21 -20 -20 -20 -20 -19 -19 -19 -19 -19 -19 -19 -19 -19 -19 -19 -18 -18 -18 -18 -18 -18 -18 -18 -18 -19 -19 -19 -19 -19 -20 -20 -21 -21 -21 -21 -21 -21 -22 -22 -22 -22
-20 -20 -20 -20 -20 -19 -19 -19 -18 -18 -18 -18 -18 -18 -18 -18 -18 -18 -17 -17 -17 -17 -17 -17 -17 -18 -18 -18 -18 -19 -19 -20 -20 -20 -20 -21 -21 -21 -21 -21 -22 -22
-20 -20 -20 -20 -20 -20 -19 -19 -18 -18 -18 -18 -18 -18 -18 -18 -18 -17 -17 -16 -16 -16 -16 -17 -17 -17 -17 -18 -18 -18 -18 -19 -19 -20 -20 -20 -20 -21 -21 -21 -21 -22
-20 -20 -20 -20 -20 -20 -19 -19 -19 -18 -18 -18 -18 -18 -18 -18 -17 -17 -17 -16 -16 -16 -16 -16 -16 -16 -17 -17 -17 -17 -18 -18 -19 -19 -19 -19 -19 -20 -20 -20 -20 -20
-21 -20 -20 -20 -20 -20 -20 -19 -19 -19 -18 -18 -18 -18 -18 -18 -17 -17 -17 -16 -15 -15 -16 -16 -16 -16 -16 -16 -16 -17 -17 -18 -18 -19 -19 -19 -19 -19 -20 -20 -20 -20
-21 -20 -20 -20 -20 -20 -20 -20 -19 -19 -19 -18 -18 -18 -18 -18 -17 -17 -17 -16 -15 -15 -15 -16 -16 -16 -16 -16 -16 -16 -16 -17 -18 -18 -18 -19 -19 -19 -20 -20 -20 -20
-20 -20 -20 -20 -20 -20 -20 -20 -20 -19 -19 -19 -18 -18 -18 -18 -17 -17 -17 -16 -16 -15 -15 -15 -16 -15 -15 -15 -15 -15 -16 -16 -17 -17 -18 -18 -18 -19 -19 -19 -19 -20
-20 -20 -20 -20 -20 -20 -20 -20 -20 -20 -19 -19 -19 -18 -18 -18 -17 -17 -17 -16 -16 -15 -15 -15 -15 -15 -15 -15 -15 -15 -15 -15 -16 -16 -17 -17 -18 -18 -18 -18 -19 -19
-20 -20 -20 -19 -19 -20 -20 -20 -20 -20 -19 -19 -19 -19 -18 -18 -17 -17 -17 -16 -16 -15 -15 -15 -15 -15 -15 -15 -14 -14 -14 -14 -15 -15 -16 -16 -17 -17 -17 -17 -18 -18
-20 -20 -19 -19 -19 -19 -20 -19 -19 -19 -19 -19 -19 -19 -18 -18 -17 -17 -16 -16 -16 -15 -15 -15 -15 -14 -14 -14 -14 -14 -14 -14 -14 -15 -15 -16 -16 -16 -16 -16 -17 -17
-21 -20 -20 -19 -19 -19 -19 -19 -19 -19 -19 -19 -19 -19 -18 -18 -17 -17 -16 -16 -16 -15 -15 -14 -14 -14 -14 -14 -14 -14 -14 -14 -14 -14 -15 -15 -15 -15 -15 -15 -16 -16
-21 -20 -20 -19 -19 -19 -19 -19 -19 -19 -19 -19 -19 -19 -19 -18 -17 -17 -16 -16 -16 -15 -15 -14 -14 -14 -14 -14 -14 -14 -14 -14 -14 -14 -15 -15 -15 -15 -15 -15 -15 -15
-21 -20 -20 -19 -19 -19 -19 -19 -19 -19 -19 -19 -18 -19 -19 -18 -17 -17 -16 -16 -16 -15 -15 -14 -14 -14 -14 -14 -14 -14 -14 -14 -14 -15 -15 -14 -15 -14 -14 -14 -14 -14
-21 -20 -20 -20 -19 -19 -19 -19 -19 -19 -19 -19 -18 -18 -18 -18 -17 -17 -16 -16 -15 -15 -15 -14 -14 -14 -14 -14 -13 -13 -14 -15 -15 -15 -14 -14 -14 -14 -14 -14 -14 -14
-21 -20 -20 -20 -20 -19 -19 -19 -19 -19 -19 -18 -18 -18 -18 -18 -17 -17 -16 -16 -15 -15 -15 -14 -15 -14 -14 -13 -13 -13 -14 -14 -15 -14 -14 -14 -14 -14 -14 -14 -14 -14
-20 -20 -20 -20 -20 -19 -19 -19 -19 -18 -18 -18 -18 -18 -18 -18 -17 -17 -16 -15 -15 -15 -15 -15 -14 -14 -13 -13 -13 -13 -13 -13 -14 -13 -13 -13 -13 -13 -13 -14 -14 -14
-20 -20 -20 -20 -20 -20 -19 -19 -19 -18 -18 -18 -18 -18 -18 -18 -17 -17 -16 -15 -15 -15 -15 -15 -14 -13 -13 -13 -13 -13 -13 -13 -12 -12 -12 -12 -12 -12 -12 -13 -13 -13
-20 -20 -20 -20 -20 -19 -19 -19 -19 -18 -18 -18 -18 -18 -18 -17 -17 -16 -16 -15 -15 -15 -15 -14 -14 -13 -12 -12 -12 -12 -12 -12 -12 -11 -11 -12 -12 -13 -13 -13 -13 -13
-20 -20 -20 -20 -20 -20 -19 -19 -18 -18 -18 -18 -18 -18 -18 -17 -17 -16 -16 -15 -15 -15 -14 -14 -13 -13 -13 -12 -12 -12 -12 -12 -12 -11 -11 -11 -12 -13 -13 -13 -13 -12
-20 -20 -20 -20 -20 -19 -19 -19 -18 -18 -18 -18 -18 -18 -18 -17 -17 -16 -16 -15 -15 -15 -14 -14 -13 -13 -13 -12 -12 -12 -12 -12 -12 -12 -11 -11 -11 -11 -12 -12 -12 -11
-20 -20 -20 -20 -20 -19 -19 -19 -18 -18 -18 -18 -18 -18 -17 -17 -16 -16 -16 -15 -15 -15 -14 -14 -14 -13 -13 -13 -13 -13 -13 -12 -12 -12 -12 -12 -11 -11 -11 -11 -11 -11
-20 -19 -19 -20 -19 -19 -19 -19 -18 -18 -18 -18 -18 -18 -17 -17 -16 -16 -16 -15 -15 -15 -15 -15 -14 -14 -13 -13 -13 -13 -13 -13 -13 -12 -12 -12 -12 -12 -12 -12 -11 -11
-19 -19 -19 -19 -19 -19 -19 -19 -18 -18 -18 -18 -18 -18 -17 -16 -16 -16 -16 -16 -16 -15 -15 -15 -15 -14 -14 -14 -14 -14 -14 -14 -13 -13 -13 -13 -13 -13 -13 -12 -12 -11
Wind_Speed
12 12 13 13 14 15 17 18 19 20 20 20 20 20 19 19 18 19 19 20 20 21 21 22 22 23 23 24 24 24 25 25 25 24 25 26 27 28 29 28 27 26
13 13 13 14 15 16 17 18 19 20 20 19 19 19 19 19 19 19 20 20 21 22 22 22 22 22 22 23 23 24 25 26 26 25 25 26 26 27 29 29 29 29
13 14 14 15 15 16 17 17 18 19 19 18 18 18 19 19 19 19 20 21 21 22 22 22 23 23 22 22 23 24 25 26 27 26 26 26 25 26 27 28 29 30
14 15 15 16 16 17 17 17 18 18 18 18 18 18 18 19 19 20 20 21 21 21 22 22 22 22 21 21 21 22 23 24 25 25 26 26 26 26 26 26 26 27
16 16 17 17 18 18 18 18 18 18 18 18 18 18 19 20 21 21 21 21 21 21 21 21 21 21 21 20 20 21 22 22 23 23 25 26 26 26 26 26 26 26
17 17 18 18 19 19 20 20 19 19 19 19 19 19 20 21 22 22 23 22 22 22 21 21 21 21 20 20 20 21 22 23 23 23 23 25 25 25 25 26 27 27
19 19 19 19 20 20 21 21 21 21 20 20 20 21 21 22 23 23 23 23 22 22 21 20 21 21 21 20 21 22 22 22 23 23 24 25 25 26 26 26 27 27
20 20 20 20 20 21 21 22 22 22 22 22 22 22 22 23 23 23 23 23 23 22 20 20 20 20 20 21 21 21 21 21 22 23 24 26 27 28 28 28 28 28
21 20 20 21 21 21 21 21 22 22 22 23 23 23 23 23 24 24 23 23 23 21 20 20 20 20 20 20 21 21 21 21 21 21 23 24 25 27 27 27 28 29
21 21 21 22 22 22 21 21 21 21 21 22 23 23 24 24 24 24 23 23 23 21 20 20 20 19 19 20 20 20 20 20 20 21 22 23 24 25 26 26 27 28
22 22 22 23 23 22 22 21 21 21 21 21 22 23 23 24 24 24 23 23 23 21 20 20 20 19 19 19 19 18 19 19 19 20 21 22 23 23 24 24 25 26
22 22 22 22 22 22 22 21 21 21 21 21 22 23 23 23 23 23 23 23 22 21 21 21 20 19 19 18 17 17 18 19 19 19 19 20 21 22 22 22 23 24
22 22 22 22 22 22 22 21 21 21 21 22 22 23 22 22 23 23 23 23 22 21 21 21 20 20 18 17 17 17 18 19 18 18 18 18 18 19 19 20 20 21
21 22 22 22 22 22 22 21 21 21 22 22 22 22 22 22 22 23 23 22 21 21 21 20 20 19 18 17 17 17 18 18 17 16 16 17 16 16 17 18 18 18
22 21 21 22 22 22 22 21 21 22 22 22 22 22 22 21 22 22 22 22 21 21 20 20 20 19 17 17 18 17 16 16 16 15 16 17 18 18 19 18 18 19
22 21 21 21 22 22 22 22 22 22 22 22 22 22 22 21 21 21 21 21 21 21 20 19 19 18 17 17 16 15 14 15 16 16 17 18 19 21 22 21 20 19
22 22 21 21 21 22 22 22 22 22 22 22 22 22 21 21 21 21 20 19 20 20 19 19 18 17 15 15 12 11 13 17 20 21 21 23 23 24 24 24 22 20
22 22 22 22 22 22 22 22 22 22 22 22 22 22 21 21 20 20 18 18 18 19 18 17 16 14 13 12 10 9 11 16 21 23 25 27 27 27 26 26 25 23
21 22 22 22 22 22 22 22 22 22 21 21 21 21 21 21 19 18 17 16 17 18 17 15 13 11 9 9 9 9 10 14 19 23 26 27 28 28 28 27 26 24
21 22 22 22 23 22 23 22 22 21 21 20 21 21 21 20 18 17 16 14 15 16 16 13 11 8 8 8 8 8 9 13 18 22 25 27 28 28 29 29 27 25
21 22 22 22 22 22 23 22 21 21 20 20 20 20 20 19 17 16 15 13 13 14 14 12 9 8 7 6 6 5 8 15 20 21 22 27 29 29 29 28 26 25
20 21 22 22 22 23 22 21 20 20 20 19 19 18 18 18 16 16 15 13 12 12 13 13 10 8 6 4 2 4 12 18 19 17 15 19 25 28 27 25 23 22
19 20 21 21 21 22 21 20 20 19 19 18 17 17 17 16 16 15 14 13 11 10 11 13 11 8 5 3 1 6 16 17 14 13 11 8 11 16 19 21 22 22
18 19 20 20 20 21 20 20 19 19 18 17 16 16 16 15 15 14 13 11 10 9 9 11 11 9 6 4 2 8 15 14 11 12 11 7 6 6 9 11 14 17
17 18 19 20 20 20 20 20 19 17 17 16 16 16 15 14 14 14 12 10 9 9 8 8 11 11 8 5 4 8 14 14 9 9 11 10 8 8 9 10 10 11
17 18 19 19 19 19 19 18 17 16 16 16 15 15 14 14 12 12 12 9 8 9 9 7 10 12 10 8 8 8 12 13 10 8 9 13 14 14 15 15 13 11
Wind_Direction
289 290 291 292 293 291 289 291 292 292 294 294 295 296 297 299 301 301 301 299 298 297 295 294 292 289 287 284 282 281 279 278 277 276 273 271 269 266 265 263 259 258
284 283 284 287 287 287 286 287 288 289 290 291 292 295 297 301 302 302 302 301 300 298 297 295 293 291 288 284 282 280 278 276 275 274 273 272 272 268 266 265 263 260
282 280 280 281 281 281 282 282 284 285 287 288 290 294 297 299 300 301 302 302 301 299 298 296 293 291 288 285 281 278 276 275 273 273 272 271 271 270 268 267 266 262
279 279 279 279 279 279 279 279 280 281 282 284 286 290 292 295 297 299 300 301 301 300 298 296 294 291 289 286 282 278 276 275 274 273 272 271 270 269 270 269 269 267
278 277 278 279 279 278 278 277 278 278 278 279 281 285 287 291 293 295 298 300 300 300 298 296 295 294 292 290 287 283 280 278 276 274 272 271 269 268 268 269 270 270
276 276 277 277 278 278 277 276 276 275 275 275 278 281 283 287 289 291 295 297 298 298 297 297 297 296 295 294 290 286 282 279 277 275 273 271 270 268 267 268 268 269
273 274 276 276 276 276 275 275 274 273 273 274 276 279 281 284 286 289 291 293 294 295 296 297 298 297 296 293 291 288 284 280 276 272 270 269 269 268 266 266 267 267
272 273 275 276 275 275 274 273 273 272 272 273 275 278 281 283 284 286 288 289 291 293 295 297 297 297 296 294 292 291 288 284 278 273 270 268 267 267 266 266 265 266
274 274 276 276 275 274 273 272 272 272 273 274 276 278 280 282 283 285 286 286 288 291 293 296 296 296 295 294 293 293 292 289 285 279 274 271 269 268 268 267 267 266
274 275 276 277 276 274 272 271 271 272 273 274 275 277 278 280 282 283 284 283 285 289 292 293 294 292 291 293 295 295 295 294 290 285 280 276 272 269 268 267 266 267
275 275 275 275 275 274 272 270 270 271 272 274 274 275 277 279 280 281 281 281 282 287 291 292 292 290 289 291 294 296 297 296 294 291 287 284 280 277 273 269 267 266
276 276 276 275 273 273 272 270 271 271 271 273 275 276 276 277 278 279 279 280 281 284 287 289 289 286 285 288 292 295 299 300 299 295 291 288 286 285 282 278 273 270
277 278 276 275 273 272 272 271 271 272 272 274 275 276 276 276 277 278 277 278 280 282 284 285 285 282 282 285 291 296 298 299 299 297 294 292 290 289 288 285 282 278
277 277 276 275 274 272 271 272 273 274 275 275 275 275 275 275 276 276 277 278 280 281 281 281 281 280 279 284 290 295 295 294 293 292 294 296 298 297 294 291 290 287
276 275 275 275 275 274 274 274 274 276 277 277 276 275 274 273 273 273 275 279 281 280 279 279 281 280 278 282 288 291 290 289 289 289 292 297 301 302 300 297 294 292
274 274 274 274 274 276 276 276 276 277 278 278 277 275 273 271 270 270 273 277 279 278 278 278 280 280 279 280 286 291 293 294 294 294 296 298 300 301 300 298 296 295
274 274 273 273 274 274 275 277 279 279 280 279 277 274 271 269 268 269 271 273 275 276 277 277 277 277 277 278 283 290 291 289 288 290 293 295 298 298 296 295 295 294
274 273 273 273 273 274 276 277 278 280 281 280 277 274 270 267 266 267 268 269 271 273 275 275 273 271 272 274 276 279 280 282 283 284 287 288 291 293 292 291 291 290
275 273 273 273 273 274 276 277 278 280 280 280 278 275 271 268 266 265 264 265 266 270 273 270 266 264 263 264 268 272 277 285 287 286 286 285 285 286 287 287 286 286
276 274 273 273 272 274 275 277 278 279 280 281 278 274 270 268 266 263 262 260 261 266 267 260 255 255 251 255 266 270 275 285 291 290 285 281 279 278 278 279 281 281
277 275 274 273 273 274 275 276 278 278 280 279 277 274 270 267 265 263 259 256 257 261 257 248 245 246 247 258 268 278 300 305 306 305 290 274 270 271 273 276 278 279
278 276 275 274 274 275 275 277 278 277 278 277 273 271 269 266 265 262 258 255 252 251 248 243 238 235 244 264 263 330 333 320 316 325 313 278 269 269 271 275 280 282
280 278 278 276 275 276 276 277 278 276 276 275 272 269 267 266 265 259 256 256 248 239 242 243 237 231 242 252 251 348 336 320 316 340 348 322 294 281 274 276 281 283
281 280 280 278 277 277 277 277 277 276 275 274 272 269 266 266 265 258 254 254 244 234 238 244 243 239 240 239 260 341 334 316 315 341 345 341 347 325 294 288 287 286
283 283 284 283 281 280 277 277 276 274 275 274 271 269 266 265 266 261 254 247 238 234 235 246 252 248 244 248 267 323 330 316 308 335 335 317 308 300 289 285 284 285
287 288 288 287 285 281 277 276 276 275 274 272 269 266 264 264 266 265 259 247 235 235 236 244 257 255 258 272 271 288 317 315 301 311 328 320 306 293 285 279 275 278
Height
1467 1466 1465 1464 1464 1463 1463 1462 1462 1461 1460 1459 1458 1457 1456 1455 1454 1453 1452 1451 1450 1449 1448 1447 1446 1446 1445 1444 1444 1443 1443 1443 1443 1443 1443 1443 1443 1444 1444 1445 1446 1446
1465 1464 1463 1462 1461 1461 1461 1460 1459 1458 1458 1457 1456 1455 1454 1453 1452 1451 1450 1449 1448 1447 1446 1445 1444 1443 1442 1441 1441 1440 1439 1439 1439 1439 1440 1440 1440 1440 1440 1441 1441 1442
1462 1461 1461 1460 1459 1459 1458 1457 1457 1456 1455 1455 1454 1453 1452 1451 1450 1449 1448 1446 1445 1444 1443 1442 1440 1439 1439 1438 1437 1437 1436 1435 1435 1435 1436 1436 1436 1436 1436 1437 1437 1438
1460 1459 1458 1457 1456 1456 1455 1454 1454 1453 1452 1452 1451 1451 1449 1448 1447 1446 1445 1444 1442 1441 1440 1439 1438 1436 1435 1435 1434 1433 1432 1432 1432 1432 1432 1432 1432 1433 1433 1433 1433 1433
1457 1456 1455 1454 1453 1453 1452 1451 1451 1450 1449 1449 1448 1447 1447 1445 1445 1443 1442 1441 1440 1438 1437 1436 1434 1433 1432 1431 1430 1429 1429 1428 1428 1428 1428 1428 1428 1429 1429 1430 1429 1430
1454 1453 1452 1451 1450 1450 1449 1448 1448 1447 1446 1445 1445 1444 1444 1442 1441 1440 1439 1438 1437 1435 1434 1433 1431 1430 1429 1428 1427 1426 1425 1425 1425 1425 1424 1424 1424 1425 1425 1426 1426 1426
1451 1450 1449 1448 1447 1446 1446 1445 1444 1444 1443 1442 1441 1441 1440 1439 1438 1437 1436 1434 1433 1432 1431 1430 1428 1427 1426 1425 1424 1422 1422 1421 1421 1421 1421 1421 1421 1421 1421 1422 1422 1422
1448 1447 1446 1445 1444 1443 1442 1442 1441 1441 1440 1439 1438 1437 1436 1436 1434 1434 1433 1431 1430 1429 1428 1427 1425 1424 1423 1422 1421 1419 1418 1418 1418 1418 1417 1417 1417 1417 1417 1418 1418 1418
1444 1444 1443 1442 1441 1440 1439 1438 1437 1437 1436 1435 1434 1434 1433 1432 1431 1430 1429 1428 1427 1426 1425 1424 1422 1421 1420 1419 1418 1416 1415 1415 1414 1414 1413 1413 1413 1413 1413 1414 1414 1414
1441 1440 1439 1438 1437 1436 1435 1435 1434 1433 1433 1432 1431 1430 1429 1428 1427 1427 1426 1424 1423 1423 1422 1421 1419 1418 1417 1416 1415 1414 1412 1411 1411 1410 1410 1409 1409 1409 1409 1410 1410 1410
1437 1436 1436 1435 1434 1433 1432 1431 1430 1430 1429 1428 1427 1426 1425 1424 1424 1423 1422 1421 1420 1419 1419 1418 1416 1415 1414 1413 1412 1411 1410 1409 1408 1407 1406 1406 1405 1405 1405 1406 1405 1405
1434 1433 1432 1431 1430 1429 1428 1428 1427 1426 1425 1424 1423 1422 1421 1421 1420 1419 1418 1417 1417 1416 1415 1414 1413 1412 1411 1410 1409 1408 1407 1406 1405 1404 1403 1402 1402 1402 1401 1402 1401 1401
1430 1429 1428 1427 1426 1425 1425 1424 1423 1422 1421 1420 1419 1418 1417 1417 1416 1415 1414 1414 1413 1412 1412 1411 1410 1409 1408 1407 1407 1405 1404 1403 1402 1401 1401 1400 1399 1399 1398 1398 1398 1398
1426 1425 1424 1423 1423 1422 1421 1420 1419 1418 1417 1416 1415 1414 1414 1413 1412 1411 1410 1410 1410 1409 1408 1407 1406 1406 1405 1405 1404 1403 1402 1401 1400 1399 1398 1397 1396 1396 1396 1395 1395 1394
1422 1421 1420 1419 1419 1418 1417 1416 1415 1414 1413 1412 1411 1410 1410 1409 1408 1407 1407 1406 1406 1405 1404 1404 1403 1402 1402 1402 1401 1400 1399 1398 1397 1396 1395 1395 1394 1393 1393 1392 1392 1391
1417 1417 1416 1415 1415 1414 1413 1412 1411 1410 1409 1408 1407 1406 1406 1405 1404 1404 1403 1403 1402 1401 1401 1400 1399 1399 1399 1399 1398 1397 1396 1395 1394 1393 1393 1392 1391 1391 1390 1389 1389 1389
1413 1413 1412 1411 1410 1410 1409 1408 1407 1406 1405 1404 1403 1402 1402 1401 1400 1400 1400 1399 1398 1398 1397 1397 1396 1396 1396 1396 1395 1394 1394 1393 1392 1391 1390 1389 1388 1387 1387 1386 1386 1386
1409 1408 1408 1407 1406 1406 1405 1404 1403 1402 1401 1400 1399 1398 1398 1397 1397 1396 1396 1396 1395 1394 1394 1394 1393 1394 1393 1393 1392 1392 1391 1391 1390 1389 1388 1386 1385 1384 1383 1383 1382 1382
1405 1404 1404 1403 1402 1402 1401 1400 1399 1398 1397 1396 1395 1395 1394 1393 1393 1393 1392 1392 1392 1391 1390 1390 1391 1391 1391 1390 1389 1389 1389 1388 1387 1386 1385 1383 1382 1381 1380 1379 1379 1379
1401 1400 1399 1399 1398 1398 1397 1396 1395 1394 1393 1392 1391 1391 1390 1390 1389 1389 1389 1389 1388 1388 1387 1387 1388 1388 1388 1387 1386 1386 1386 1385 1385 1383 1382 1380 1378 1377 1376 1376 1375 1375
1397 1396 1395 1395 1394 1394 1393 1392 1391 1390 1389 1389 1388 1387 1386 1386 1386 1386 1385 1385 1385 1384 1384 1384 1385 1385 1385 1384 1383 1383 1383 1382 1381 1379 1377 1375 1374 1373 1373 1372 1372 1372
1393 1392 1391 1391 1390 1390 1389 1388 1388 1387 1386 1385 1384 1383 1383 1383 1383 1383 1382 1382 1382 1381 1381 1381 1382 1382 1382 1381 1380 1380 1380 1379 1378 1375 1372 1370 1369 1369 1369 1369 1369 1369
1389 1388 1387 1387 1387 1386 1385 1385 1384 1383 1383 1382 1381 1380 1380 1380 1380 1379 1379 1379 1379 1379 1378 1378 1379 1379 1378 1378 1377 1377 1377 1376 1374 1372 1369 1367 1366 1366 1366 1366 1366 1366
1386 1385 1384 1383 1383 1382 1381 1381 1380 1380 1379 1379 1378 1377 1377 1377 1376 1376 1376 1376 1376 1376 1376 1375 1375 1376 1375 1375 1374 1375 1375 1373 1371 1369 1367 1366 1364 1364 1364 1364 1363 1363
1382 1381 1380 1380 1379 1379 1378 1377 1377 1377 1376 1375 1375 1374 1374 1374 1373 1373 1373 1373 1373 1373 1373 1373 1372 1372 1372 1372 1372 1372 1372 1370 1369 1367 1366 1364 1363 1362 1361 1361 1361 1360
1379 1378 1377 1376 1376 1375 1375 1374 1373 1373 1373 1372 1372 1371 1371 1371 1371 1370 1370 1371 1371 1371 1370 1370 1370 1369 1369 1369 1369 1369 1369 1368 1366 1365 1364 1362 1361 1360 1359 1358 1358 1357